Weather History for KTBX - September, 2013

Change the Weather History Date:

Tuesday, September 10, 2013

  Actual Average (KWRL) Record (KWRL)
Temperature  
Mean Temperature 57 °F 61 °F  
Max Temperature 64 °F 78 °F 91 °F (1971)
Min Temperature 50 °F 45 °F 33 °F (1962)
Degree Days  
Heating Degree Days 8 5  
Month to date heating degree days 36  
Since 1 July heating degree days 72  
Cooling Degree Days 0 1  
Month to date cooling degree days 20  
Year to date cooling degree days 526  
Growing Degree Days 7 (Base 50)    
Moisture  
Dew Point 41 °F    
Average Humidity 57    
Maximum Humidity 76    
Minimum Humidity 37    
Precipitation  
Precipitation 0.00 in 0.03 in 0.44 in (1961)
Month to date precipitation 0.23  
Year to date precipitation 5.68  
Sea Level Pressure  
Sea Level Pressure 30.37 in    
Wind  
Wind Speed 14 mph (ESE)    
Max Wind Speed 23 mph    
Max Gust Speed 22 mph    
Visibility 10 miles    
Events      
T = Trace of Precipitation, MM = Missing Value Source: NWS Daily Summary

Daily Weather History Graph

Daily Weather History Graph

Search for Another Location

Airport or City:

Trip Planner

Search our weather history database for the weather conditions in past years. The results will help you decide how hot, cold, wet, or windy it might be!

Date:

Astronomy

Sep. 10, 2013 Rise Set
Actual Time 6:47 AM MDT 7:31 PM MDT
Civil Twilight 6:18 AM MDT 8:00 PM MDT
Nautical Twilight 5:43 AM MDT 8:34 PM MDT
Astronomical Twilight 5:08 AM MDT 9:10 PM MDT
Moon 12:26 PM MDT (9/10) 10:26 PM MDT (9/10)
Length of Visible Light 13h 42m
Length of Day
12h 44m
Waxing Crescent, 29% of the Moon is Illuminated
Sep 10
Waxing Crescent
Sep 12
First Quarter
Sep 19
Full
Sep 26
Last Quarter
Oct 4
New

Hourly Weather History & Observations

Time (MDT) Temp. Dew Point Humidity Pressure Visibility Wind Dir Wind Speed Gust Speed Precip Events Conditions
12:15 AM 53.6 °F 42.8 °F 67% 30.30 in 10.0 mi NW 18.4 mph - N/A   Overcast
12:35 AM 53.6 °F 42.8 °F 67% 30.30 in 10.0 mi NW 19.6 mph - N/A   Overcast
12:55 AM 53.6 °F 42.8 °F 67% 30.31 in 10.0 mi NW 20.7 mph - N/A   Overcast
1:15 AM 51.8 °F 42.8 °F 71% 30.31 in 10.0 mi NW 19.6 mph - N/A   Overcast
1:35 AM 51.8 °F 41.0 °F 67% 30.31 in 10.0 mi NW 23.0 mph - N/A   Overcast
1:55 AM 51.8 °F 42.8 °F 71% 30.32 in 10.0 mi NW 19.6 mph - N/A   Overcast
2:15 AM 51.8 °F 41.0 °F 67% 30.33 in 10.0 mi NW 20.7 mph - N/A   Overcast
2:35 AM 51.8 °F 41.0 °F 67% 30.33 in 10.0 mi NW 17.3 mph - N/A   Overcast
2:55 AM 51.8 °F 41.0 °F 67% 30.33 in 10.0 mi NW 17.3 mph - N/A   Overcast
3:15 AM 51.8 °F 42.8 °F 71% 30.34 in 10.0 mi NW 17.3 mph - N/A   Overcast
3:35 AM 51.8 °F 42.8 °F 71% 30.33 in 10.0 mi NW 17.3 mph - N/A   Overcast
3:55 AM 50.0 °F 42.8 °F 76% 30.34 in 10.0 mi NW 16.1 mph - N/A   Overcast
4:15 AM 50.0 °F 41.0 °F 71% 30.33 in 10.0 mi NW 15.0 mph - N/A   Overcast
4:35 AM 51.8 °F 41.0 °F 67% 30.34 in 10.0 mi NW 16.1 mph - N/A   Overcast
4:55 AM 50.0 °F 41.0 °F 71% 30.34 in 10.0 mi NW 15.0 mph - N/A   Overcast
5:15 AM 50.0 °F 41.0 °F 71% 30.34 in 10.0 mi NW 15.0 mph - N/A   Overcast
5:35 AM 51.8 °F 41.0 °F 67% 30.34 in 10.0 mi NW 15.0 mph - N/A   Overcast
5:55 AM 51.8 °F 41.0 °F 67% 30.34 in 10.0 mi NW 13.8 mph - N/A   Overcast
6:15 AM 51.8 °F 41.0 °F 67% 30.34 in 10.0 mi NW 12.7 mph - N/A   Overcast
6:35 AM 51.8 °F 41.0 °F 67% 30.35 in 10.0 mi NW 12.7 mph - N/A   Overcast
6:55 AM 50.0 °F 41.0 °F 71% 30.35 in 10.0 mi NW 11.5 mph - N/A   Overcast
7:15 AM 51.8 °F 41.0 °F 67% 30.36 in 10.0 mi NW 10.4 mph - N/A   Overcast
7:35 AM 51.8 °F 41.0 °F 67% 30.36 in 10.0 mi NW 12.7 mph - N/A   Overcast
7:55 AM 51.8 °F 41.0 °F 67% 30.36 in 10.0 mi NW 10.4 mph - N/A   Mostly Cloudy
8:15 AM 51.8 °F 41.0 °F 67% 30.36 in 10.0 mi NW 9.2 mph - N/A   Scattered Clouds
8:35 AM 51.8 °F 41.0 °F 67% 30.37 in 10.0 mi NW 9.2 mph - N/A   Mostly Cloudy
8:55 AM 51.8 °F 42.8 °F 71% 30.38 in 10.0 mi NW 9.2 mph - N/A   Overcast
9:15 AM 51.8 °F 41.0 °F 67% 30.38 in 10.0 mi NNW 6.9 mph - N/A   Mostly Cloudy
9:35 AM 53.6 °F 42.8 °F 67% 30.39 in 10.0 mi NNW 3.5 mph - N/A   Scattered Clouds
9:55 AM 55.4 °F 42.8 °F 63% 30.39 in 10.0 mi NNW 4.6 mph - N/A   Clear
10:15 AM 55.4 °F 41.0 °F 58% 30.39 in 10.0 mi Calm Calm - N/A   Clear
10:35 AM 55.4 °F 41.0 °F 58% 30.40 in 10.0 mi Calm Calm - N/A   Clear
10:55 AM 59.0 °F 41.0 °F 51% 30.40 in 10.0 mi Calm Calm - N/A   Clear
11:15 AM 60.8 °F 41.0 °F 48% 30.40 in 10.0 mi Calm Calm - N/A   Clear
11:35 AM 60.8 °F 41.0 °F 48% 30.40 in 10.0 mi ESE 11.5 mph 16.1 mph N/A   Clear
11:55 AM 59.0 °F 39.2 °F 48% 30.40 in 10.0 mi ESE 10.4 mph - N/A   Clear
12:15 PM 60.8 °F 39.2 °F 45% 30.40 in 10.0 mi ESE 8.1 mph - N/A   Clear
12:35 PM 60.8 °F 39.2 °F 45% 30.40 in 10.0 mi East 6.9 mph - N/A   Clear
12:55 PM 60.8 °F 39.2 °F 45% 30.40 in 10.0 mi East 8.1 mph - N/A   Scattered Clouds
1:15 PM 60.8 °F 39.2 °F 45% 30.39 in 10.0 mi SE 9.2 mph 16.1 mph N/A   Scattered Clouds
1:35 PM 60.8 °F 39.2 °F 45% 30.39 in 10.0 mi SSE 6.9 mph - N/A   Clear
1:55 PM 60.8 °F 37.4 °F 42% 30.40 in 10.0 mi SE 4.6 mph - N/A   Clear
2:15 PM 62.6 °F 37.4 °F 39% 30.39 in 10.0 mi SE 11.5 mph 20.7 mph N/A   Clear
2:35 PM 62.6 °F 37.4 °F 39% 30.39 in 10.0 mi ESE 10.4 mph 16.1 mph N/A   Clear
2:55 PM 60.8 °F 37.4 °F 42% 30.38 in 10.0 mi SE 6.9 mph - N/A   Clear
3:15 PM 62.6 °F 37.4 °F 39% 30.38 in 10.0 mi SSE 8.1 mph - N/A   Clear
3:35 PM 62.6 °F 37.4 °F 39% 30.38 in 10.0 mi SE 11.5 mph - N/A   Clear
3:55 PM 64.4 °F 37.4 °F 37% 30.38 in 10.0 mi ESE 12.7 mph 18.4 mph N/A   Clear
4:15 PM 62.6 °F 37.4 °F 39% 30.37 in 10.0 mi SE 17.3 mph - N/A   Clear
4:35 PM 64.4 °F 37.4 °F 37% 30.37 in 10.0 mi SE 15.0 mph 21.9 mph N/A   Clear
4:55 PM 62.6 °F 37.4 °F 39% 30.37 in 10.0 mi SE 11.5 mph 21.9 mph N/A   Clear
5:15 PM 62.6 °F 37.4 °F 39% 30.37 in 10.0 mi SE 9.2 mph 20.7 mph N/A   Clear
5:35 PM 62.6 °F 37.4 °F 39% 30.38 in 10.0 mi ESE 8.1 mph - N/A   Clear
5:55 PM 62.6 °F 39.2 °F 42% 30.37 in 10.0 mi ESE 8.1 mph 11.5 mph N/A   Clear
6:15 PM 62.6 °F 39.2 °F 42% 30.38 in 10.0 mi SE 9.2 mph 17.3 mph N/A   Clear
6:35 PM 62.6 °F 39.2 °F 42% 30.38 in 10.0 mi ESE 10.4 mph 17.3 mph N/A   Clear
6:55 PM 60.8 °F 41.0 °F 48% 30.38 in 10.0 mi SE 10.4 mph - N/A   Clear
7:15 PM 60.8 °F 41.0 °F 48% 30.38 in 10.0 mi ESE 12.7 mph - N/A   Clear
7:35 PM 60.8 °F 42.8 °F 52% 30.38 in 10.0 mi SE 11.5 mph - N/A   Clear
7:55 PM 59.0 °F 44.6 °F 59% 30.39 in 10.0 mi SE 15.0 mph - N/A   Clear
8:15 PM 59.0 °F 44.6 °F 59% 30.40 in 10.0 mi SE 11.5 mph - N/A   Clear
8:35 PM 59.0 °F 44.6 °F 59% 30.40 in 10.0 mi SE 15.0 mph - N/A   Clear
8:55 PM 59.0 °F 44.6 °F 59% 30.41 in 10.0 mi SE 17.3 mph - N/A   Clear
9:15 PM 59.0 °F 44.6 °F 59% 30.41 in 10.0 mi SE 15.0 mph - N/A   Clear
9:35 PM 59.0 °F 44.6 °F 59% 30.41 in 10.0 mi SE 13.8 mph - N/A   Clear
9:55 PM 57.2 °F 44.6 °F 63% 30.41 in 10.0 mi SE 13.8 mph - N/A   Clear
10:15 PM 57.2 °F 42.8 °F 59% 30.42 in 10.0 mi SE 15.0 mph - N/A   Clear
10:35 PM 57.2 °F 42.8 °F 59% 30.42 in 10.0 mi SE 15.0 mph - N/A   Clear
10:55 PM 55.4 °F 42.8 °F 63% 30.43 in 10.0 mi SE 12.7 mph - N/A   Clear
11:15 PM 55.4 °F 42.8 °F 63% 30.43 in 10.0 mi SE 11.5 mph - N/A   Clear
11:35 PM 55.4 °F 42.8 °F 63% 30.42 in 10.0 mi SE 11.5 mph - N/A   Clear
11:55 PM 55.4 °F 42.8 °F 63% 30.42 in 10.0 mi SE 13.8 mph - N/A   Clear